Satellite Actuals Today Synoptics Week ahead

Weather information and forecast links for Shobdon, the Midlands, Western England and Wales

Today:

BBC Leominster local forecast and regional video.

Met Office general forecast

Met Office F214 and F215 charts (as displayed in the Aero Club each day) You have to register to use this site, but it is free.

Links to pretty much everything you need Rackham's home.

Satellite Met Office or Sat24 - visual for lower cloud, infrared for upper cloud.

XCWeather Wind map and local forecast

Will it Rain Today?

TAFs and METARs EGBB:Birmingham EGFF:Cardiff EGVN:Brize Norton

Local forecasts Met Office  MetCheck  Weatherweb

RASP Ridge wind forecast

Dewpoint+Temperature tephigram UK Soundings or Weather online


Other Club sites:Dunstable  Lasham  Nympsfield Long Mynd

Shobdon Hangar web-cam facing Southwest

Latest TAFs

Birmingham

2019/05/20 18:09
TAF EGBB 201700Z 2018/2118 34006KT 9999 SCT045 PROB30 
      TEMPO 2018/2020 7000 SHRA 
      TEMPO 2103/2108 3000 BR BKN003

Brize Norton

2019/05/20 18:39
TAF TAF EGVN 201635Z 2018/2118 32005KT 9999 FEW045 PROB30 2103/2108 5000 BR

Cardiff

2019/05/20 18:09
TAF EGFF 201700Z 2018/2118 24008KT 9999 SCT045 PROB30 
      TEMPO 2018/2020 7000 SHRA

Select station

2019/05/20 18:09
TAF EGCC 201657Z 2018/2124 29009KT 9999 FEW030 
      TEMPO 2100/2108 6000 BKN008 PROB30 2101/2107 2000 BR BKN003

Decode?  - Copy the TAF (from the station code) and paste it into the METARs/TAFs box here.

Soaring data for today

Data provided by RASP

Today's Forecast for Shobdon (52.24207,-2.87443)
Stars rating
Wind direction
Wind speed
Cumrasp-uk.ukulus potential
Surface Sunshine
Surface Temperature
MSL Pressuree
Rainfall